sat.trackr.live / text

‹ back to catalog

APRIZESAT 2

NORAD 28366 · 2004-025A

PAYLOAD ACTIVE UNKNOWN

§ Identity

Operator
Country
US
Launch date
2004-06-29
Launch site
TYMSC
Launch vehicle
Mass (kg)
RCS (m²)
0.05

External: N2YO · Heavens-Above · Gunter

§ Orbital elements

Epoch: 2026-09-19T21:53:33.993600Z

Period
100.13 min
Inclination
98.1130°
Eccentricity
0.0104734
Mean motion
14.38068300 rev/d
Perigee alt
690.1 km
Apogee alt
839.7 km
Semi-major
7,143.0 km
B*
3.7520e-5
RAAN
63.5905°
Arg perigee
324.7459°
Mean anomaly
34.6831°
Rev number
16,525

§ Raw data

APRIZESAT 21 28366U 04025A   26262.91219900  .00000077  00000+0  37520-4 0  99992 28366  98.1130  63.5905 0104734 324.7459  34.6831 14.38068300165257

JSON: /api/v1/satellites/28366 · /tle

For live sub-satellite position, see the globe view (requires WebGL).

§ Visibility from observer

Set your observer location to see the next 7 days of passes ≥ 10°. The values pass through the URL so the page stays shareable.

No JS? Fill the form by hand. The geolocation button needs JavaScript.